Regional Weather Roundup
Issued by NWS

Home | Current Version | Previous Version | Graphics & Text | Print | Product List | Glossary On
Versions: 1 2 3 4 5 6 7 8 9 10 11 12 13 14 15 16 17 18 19 20 21 22 23 24 25 26 27 28 29 30 31 32 33 34 35 36 37 38 39 40 41 42 43 44 45 46 47 48 49 50
000
ASUS43 KOAX 211002
RWRNE

WEATHER ROUNDUP FOR NEBRASKA
NATIONAL WEATHER SERVICE OMAHA NE
500 AM CDT MON MAY 21 2018

NOTES: SATELLITE DATA IS BEING USED TO AUGMENT CLOUD COVER ABOVE
       12000 FEET.
       "FAIR" INDICATES FEW OR NO CLOUDS BELOW 12,000 FEET WITH NO
       SIGNIFICANT WEATHER AND/OR OBSTRUCTIONS TO VISIBILITY.


NEZ001>004-019>022-054>056-211100-
NEBRASKA PANHANDLE

CITY           SKY/WX    TMP DP  RH WIND       PRES   REMARKS
SCOTTSBLUFF    CLEAR     46  45  96 E8        30.04F
ALLIANCE       CLEAR     41  41 100 SE7       30.04F
CHADRON        CLEAR     43  40  89 CALM      30.02F
GORDON         FAIR      42  38  87 CALM      30.05S
KIMBALL        PTCLDY    45  45  99 SE9       30.05F FOG
SIDNEY         PTCLDY    45  44  97 S7        30.06F
$$

NEZ057>060-069>072-079>082-211100-
SOUTHWEST NEBRASKA

CITY           SKY/WX    TMP DP  RH WIND       PRES   REMARKS
NORTH PLATTE   PTCLDY    50  48  93 CALM      30.09S
IMPERIAL       PTCLDY    45  45 100 CALM      30.08F
LEXINGTON      FOG       45  44  97 CALM      30.08F VSB 1/2
MCCOOK         FOG       43  43 100 NE3       30.08F VSB 1/4
OGALLALA       PTCLDY    48  46  92 CALM      30.08F
$$

NEZ005>010-023>029-035>040-094-211100-
NORTH CENTRAL NEBRASKA

CITY           SKY/WX    TMP DP  RH WIND       PRES   REMARKS
VALENTINE      PTCLDY    46  44  93 S3        30.06R
AINSWORTH      PTCLDY    49  48  99 SW9       30.07R
BROKEN BOW     FOG       47  46  97 W6        30.07F VSB 1/2
O`NEILL        CLOUDY    54  53  95 CALM      30.06F
ORD            CLEAR     45  45 100 CALM      30.07R
THEDFORD       CLOUDY    49  48  97 SW8       30.08S FOG
$$

NEZ041-046>049-061>064-073>077-083>087-211100-
SOUTH CENTRAL NEBRASKA

CITY           SKY/WX    TMP DP  RH WIND       PRES   REMARKS
GRAND ISLAND   CLOUDY    50  49  96 CALM      30.08F FOG
AURORA         FOG       47  47 100 W5        30.08S VSB 1/2
HASTINGS       CLOUDY    49  49 100 SW5       30.10R FOG
HOLDREGE       FOG       46  46 100 CALM      30.09S VSB 1/4
KEARNEY        FOG       48  47  96 W3        30.09F VSB 3/4
YORK           CLOUDY    50  50 100 W6        30.07F
$$

NEZ011>018-030>034-042>045-211100-
NORTHEAST NEBRASKA

CITY           SKY/WX    TMP DP  RH WIND       PRES   REMARKS
NORFOLK        CLOUDY    52  51  97 N5        30.04F
ALBION         MOCLDY    48  47  99 CALM      30.07S FOG
BLAIR          DRZL/FOG  55  55  98 W3        30.03S VSB 1/4
COLUMBUS       CLOUDY    53  51  93 N3        30.07S
FREMONT        CLOUDY    55  55  98 W7        30.06R FOG
TEKAMAH        CLOUDY    56  55  97 NW6       30.03S FOG
WAYNE          CLOUDY    53  52  96 NW5       30.05F FOG
$$

NEZ050>053-065>068-078-088>093-211100-
SOUTHEAST NEBRASKA

CITY           SKY/WX    TMP DP  RH WIND       PRES   REMARKS
LINCOLN        CLOUDY    54  52  93 W6        30.07R
OMAHA EPPLEY   CLOUDY    58  55  90 NW5       30.03S FOG
BEATRICE       CLOUDY    55  54  97 NW7       30.06F
FALLS CITY     CLOUDY    57  54  89 NW7       30.02F
NEBRASKA CITY  CLOUDY    56  56 100 W8        30.04R FOG
PLATTSMOUTH    CLOUDY    55  55 100 W8        30.03F FOG
$$

NEZ044-045-051>053-067-211100-
OMAHA AREA

CITY           SKY/WX    TMP DP  RH WIND       PRES   REMARKS
OMAHA EPPLEY   CLOUDY    58  55  90 NW5       30.03S FOG
BLAIR          DRZL/FOG  55  55  98 W3        30.03S VSB 1/4
FREMONT        CLOUDY    55  55  98 W7        30.06R FOG
MILLARD        CLOUDY    56  55  96 NW8       30.03S FOG
OFFUTT AFB     CLOUDY    56  56 100 W6        30.02S FOG
PLATTSMOUTH    CLOUDY    55  55 100 W8        30.03F FOG
WAHOO          CLOUDY    55  53  92 NW9       30.06R
$$




USA.gov is the U.S. government's official web portal to all federal, state and local government web resources and services.